Voltar ao catálogo

COSMOS 2499 DEB

LostPO
NORAD 55736·DEBRIS·🇷🇺 Russia

Lançado May 23, 2014 de Plesetsk Cosmodrome

Loading…

Próximas Passagens (próximas 24 horas)

TLE

ObsoletoSource: Space-Track

Época: May 23, 2023, 02:28 UTC

1 55736U 14028AY  23143.10281863  .00006068  00000-0  18316-1 0  9993
2 55736  82.3627 285.9200 0251481 117.5628 245.1272 12.96414465 14485

Acompanhe COSMOS 2499 DEB em tempo real com AllMySat

Download on the App Store